Flag for Germany Weather past 2 weeks in Eberswalde, Brandenburg, Germany

Now
64 °F

Passing clouds.


Feels Like: 64 °F
Forecast: 64 / 87 °F
Wind: 8 mph from East

Location: Berlin-Tegel

Current Time: Jul 2, 2015 at 6:45:28 AM

Latest Report: Jul 2, 2015 at 6:20 AM


Visibility: N/A

Pressure: 30.27 "Hg

Humidity: 64%

Dew point: 52 °F

Location of EberswaldeLocation

Historic Weather in Eberswalde — Graph

°F

Eberswalde temperature yesterday

Maximum temperature yesterday: 79 °F (at 2:20 PM)
Minimum temperature yesterday: 59 °F (at 3:50 AM)
Average temperature yesterday: 70 °F

Past Weeks' High & Low Weather Summary

 TemperatureHumidityPressure
High79 °F (Jun 29, 2:20 PM)100% (Jun 18, 5:20 AM)30.27 "Hg (Jun 18, 5:20 AM)
Low43 °F (Jun 17, 5:20 AM)28% (Jun 17, 3:50 PM)29.59 "Hg (Jun 23, 1:20 AM)
Average62 °F69%30.02 "Hg
* Reported Jun 17 5:20 AM — Jul 2 5:20 AM, Eberswalde, Weather by CustomWeather, © 2015

Note: Actual official high and low records may vary slightly from our data, if they occured in-between our weather recording intervals... More about our weather records

Advertising

Eberswalde weather history for previous 24 hours

 ConditionsComfort  
Time TempWeatherWind HumidityBarometerVisibility
5:20 AM
Thu, Jul 2
63 °FPassing clouds.6 mph68%30.27 "HgN/A
4:50 AM63 °FPassing clouds.6 mph68%30.24 "HgN/A
4:20 AM63 °FClear.6 mph68%30.24 "Hg10 mi
3:50 AM63 °FPassing clouds.6 mph68%30.24 "HgN/A
3:20 AM63 °FPassing clouds.6 mph73%30.24 "HgN/A
2:50 AM64 °FPassing clouds.5 mph68%30.24 "HgN/A
2:20 AM64 °FClear.6 mph73%30.24 "Hg10 mi
1:50 AM64 °FPassing clouds.6 mph73%30.24 "HgN/A
1:20 AM66 °FPassing clouds.7 mph68%30.24 "HgN/A
12:50 AM66 °FPassing clouds.6 mph64%30.24 "HgN/A
12:20 AM68 °FPassing clouds.6 mph60%30.24 "HgN/A
11:50 PM
Wed, Jul 1
68 °FPassing clouds.6 mph56%30.21 "HgN/A
11:20 PM70 °FPassing clouds.6 mph53%30.21 "HgN/A
10:50 PM72 °FPassing clouds.5 mph50%30.21 "HgN/A
10:20 PM73 °FPassing clouds.5 mph41%30.21 "HgN/A
9:50 PM73 °FPassing clouds.6 mph38%30.21 "HgN/A
9:20 PM75 °FPassing clouds.6 mph34%30.21 "HgN/A
8:50 PM77 °FPassing clouds.6 mph32%30.21 "HgN/A
8:20 PM77 °FPassing clouds.8 mph32%30.18 "HgN/A
7:50 PM79 °FPassing clouds.8 mph32%30.18 "HgN/A
7:20 PM79 °FPassing clouds.8 mph30%30.18 "HgN/A
6:50 PM79 °FPassing clouds.8 mph32%30.18 "HgN/A
6:20 PM79 °FPassing clouds.8 mph30%30.21 "HgN/A
5:50 PM79 °FPassing clouds.7 mph28%30.21 "HgN/A
5:20 PM79 °FPassing clouds.9 mph28%30.21 "HgN/A
4:50 PM79 °FPassing clouds.8 mph30%30.21 "HgN/A
4:20 PM79 °FPassing clouds.8 mph30%30.21 "HgN/A
3:50 PM79 °FSunny.7 mph30%30.21 "Hg10 mi
3:20 PM79 °FPassing clouds.8 mph32%30.21 "HgN/A
2:50 PM77 °FPassing clouds.9 mph32%30.21 "HgN/A
2:20 PM79 °FPassing clouds.7 mph32%30.21 "HgN/A
1:50 PM75 °FPassing clouds.8 mph34%30.24 "HgN/A
1:20 PM77 °FPassing clouds.8 mph30%30.24 "HgN/A
12:50 PM77 °FSunny.6 mph34%30.24 "Hg10 mi
12:20 PM73 °FSunny.7 mph38%30.24 "Hg10 mi
11:50 AM73 °FSunny.7 mph38%30.24 "Hg10 mi
11:20 AM73 °FPassing clouds.6 mph44%30.24 "HgN/A
10:50 AM72 °FSunny.6 mph44%30.24 "Hg10 mi
10:20 AM70 °FPassing clouds.6 mph50%30.24 "HgN/A
9:50 AM70 °FPassing clouds.5 mph50%30.24 "HgN/A
9:20 AM68 °FPassing clouds.7 mph53%30.24 "HgN/A
8:50 AM68 °FPassing clouds.6 mph49%30.24 "HgN/A
8:20 AM66 °FPassing clouds.6 mph56%30.24 "HgN/A
7:50 AM64 °FSunny.9 mph56%30.24 "Hg10 mi
7:20 AM63 °FPassing clouds.7 mph64%30.24 "HgN/A
6:50 AM63 °FPassing clouds.5 mph68%30.24 "HgN/A
6:20 AM59 °FPassing clouds.6 mph77%30.24 "HgN/A
Weather by CustomWeather, © 2015

See weather overviewHow to use our weather pages